Terug naar catalogus

STARLINK-35850

ActiefCommunicatieVLEO
NORAD 66352·PAYLOAD·🇺🇸 United States

Gelanceerd Nov 6, 2025 vanaf Vandenberg Space Force Base

Loading…

Volgende Passages (komende 24 uur)

TLE

VersSource: CelesTrak SupGP

Epoch: Sep 15, 2026, 03:47 UTC

1 66352C 25254E   26258.15812500 -.00026472  00000+0 -78220-3 0  2587
2 66352  53.1581  70.3359 0001112  85.4172 255.3723 15.34400373    14

Volg STARLINK-35850 in realtime met AllMySat

Download on the App Store